Regional Weather Roundup
Issued by NWS

Home | Current Version | Previous Version | Graphics & Text | Print | Product List | Glossary On
Versions: 1 2 3 4 5 6 7 8 9 10 11 12 13 14 15 16 17 18 19 20 21 22 23 24 25 26 27 28 29 30 31 32 33 34 35 36 37 38 39 40 41 42 43 44 45 46 47 48 49 50
000
ASUS43 KMKX 250311
RWRWI

WISCONSIN REGIONAL WEATHER ROUNDUP
NATIONAL WEATHER SERVICE MILWAUKEE/SULLIVAN WI
900 PM CST WED DEC 24 2014

NOTE: "FAIR" INDICATES FEW OR NO CLOUDS BELOW 12,000 FEET WITH NO
SIGNIFICANT WEATHER AND/OR OBSTRUCTIONS TO VISIBILITY.

WIZ001-002-006>008-014>016-023>028-250400-
NORTHWEST WISCONSIN

CITY           SKY/WX    TMP DP  RH WIND       PRES   REMARKS
SUPERIOR ARPT  CLOUDY    32  32  99 W5        29.54R WCI  27
ASHLAND        CLOUDY    32  31  96 SW6       29.52F WCI  26
HAYWARD        CLOUDY    32  29  88 SW6       29.53F WCI  26
SIREN          CLOUDY    32  31  95 W5        29.56S WCI  27
CUMBERLAND     CLOUDY    32  28  86 W9        29.55F WCI  24
RICE LAKE      CLOUDY    33  29  86 SW3       29.57F
CHETEK         CLOUDY    33  29  85 CALM      29.56F
LADYSMITH      CLOUDY    33  30  88 W3        29.56S
EAU CLAIRE     CLOUDY    34  29  82 W6        29.57F WCI  29
MENOMONIE      CLOUDY    34  31  87 W5        29.59F WCI  30
NEW RICHMOND   CLOUDY    33  32  97 SW6       29.58F WCI  27
OSCEOLA        CLOUDY    33  33  99 SW7       29.61S WCI  27
$$

WIZ003>005-009-010-017-018-250400-
NORTH CENTRAL WISCONSIN

CITY           SKY/WX    TMP DP  RH WIND       PRES   REMARKS
MANITOWISH WTR CLOUDY    29  29 100 W5        29.47F WCI  24
ARBOR VITAE    CLOUDY    32  30  94 NW5       29.47S WCI  27
WOODRUFF       CLOUDY    32  30  94 NW5       29.47S WCI  27
RHINELANDER    CLOUDY    29  27  92 W6        29.47F WCI  23
EAGLE RIVER    CLOUDY    29  29  99 W5        29.45F WCI  24
LAND O LAKES   CLOUDY    30  29  96 NW5       29.45F WCI  25
PHILLIPS       CLOUDY    30  29  96 CALM      29.50F
TOMAHAWK       MOCLDY    28  27  94 CALM      29.50S
MEDFORD        CLOUDY    31  29  94 W7        29.52R WCI  24
MERRILL        CLOUDY    31  29  93 NW5       29.50F WCI  27
$$

WIZ029-030-035-036-043>047-250400-
CENTRAL WISCONSIN

CITY           SKY/WX    TMP DP  RH WIND       PRES   REMARKS
WAUSAU         CLOUDY    32  29  88 NW8       29.49F WCI  25
MOSINEE        CLOUDY    32  30  93 NW8       29.51F WCI  25
MARSHFIELD     CLOUDY    33  30  88 W9        29.53S WCI  25
STEVENS POINT  CLOUDY    32  29  89 W7        29.52S WCI  25
WAUPACA        CLOUDY    36  32  87 W7        29.52S WCI  30
WAUTOMA        CLOUDY    34  33  96 W8        29.54S WCI  27
WISC RAPIDS    CLOUDY    33  30  88 W6        29.55F WCI  28
CAMP DOUGLAS   CLOUDY    33  33 100 W9        29.57R WCI  26
$$

WIZ011>013-019>022-031-037>040-048>050-250400-
NORTHEAST WISCONSIN

CITY           SKY/WX    TMP DP  RH WIND       PRES   REMARKS
ANTIGO         CLOUDY    30  29  96 NW7       29.47F FOG     WCI  23
SHAWANO        CLOUDY    35  33  94 W5        29.50R WCI  30
OCONTO         CLOUDY    32  32  99 W5        29.48R WCI  28
STURGEON BAY   CLOUDY    32  30  93 NW12      29.47R WCI  23
GREEN BAY      CLOUDY    34  32  92 W8        29.49S WCI  27
MANITOWOC      CLOUDY    34  33  96 W8        29.49R WCI  27
APPLETON       CLOUDY    34  34 100 NW12      29.50S WCI  25
CLINTONVILLE   CLOUDY    34  32  93 NW8       29.50S WCI  27
OSHKOSH        CLOUDY    34  31  88 W9        29.51R WCI  27
$$

WIZ032>034-041-042-053>061-250400-
SOUTHWEST WISCONSIN

CITY           SKY/WX    TMP DP  RH WIND       PRES   REMARKS
LA CROSSE      CLOUDY    36  29  75 W7        29.61S WCI  30
SPARTA         CLOUDY    34  31  90 W5        29.60S WCI  30
VIROQUA        CLOUDY    33  33 100 W8        29.59S WCI  25
BOSCOBEL       CLOUDY    36  30  79 W6        29.63R WCI  31
PRAIRIE DU CHI CLOUDY    35  29  79 W10       29.64R WCI  27
PLATTEVILLE    CLOUDY    34  32  92 W12       29.62S WCI  25
$$

WIZ056-057-062-063-064-067-068-250400-
SOUTH CENTRAL WISCONSIN

CITY           SKY/WX    TMP DP  RH WIND       PRES   REMARKS
REEDSBURG      CLOUDY    33  32  95 W9        29.58R WCI  25
BARABOO/DELLS  CLOUDY    33  31  94 W6        29.57R WCI  27
LONE ROCK      CLOUDY    39  31  72 W12       29.60R WCI  32
MINERAL POINT  CLOUDY    34  32  93 W10G16    29.59S WCI  26
MADISON        CLOUDY    34  31  88 W6        29.56R WCI  29
MIDDLETON      CLOUDY    36  34  94 W9        29.57S WCI  29
WATERTOWN      CLOUDY    34  33  96 W8        29.54R WCI  27
MONROE         CLOUDY    34  32  93 W12       29.58S WCI  25
JANESVILLE     CLOUDY    36  34  93 W10       29.57R WCI  28
$$

WIZ051-052-058>065-066-070>072-250400-
SOUTHEAST WISCONSIN

CITY           SKY/WX    TMP DP  RH WIND       PRES   REMARKS
MILWAUKEE      CLOUDY    36  31  82 W13       29.52R WCI  27
WAUKESHA       DRIZZLE   32  32 100 W13G20    29.53S WCI  22
MILWAUKEE/TIMM CLOUDY    34  32  93 W13       29.53R WCI  25
RACINE         CLOUDY    36  32  85 W15       29.54R WCI  27
BURLINGTON     CLOUDY    34  32  93 W12G18    29.54S WCI  25
KENOSHA        CLOUDY    36  33  89 W13       29.54R WCI  27
FOND DU LAC    CLOUDY    34  31  88 W13       29.51S WCI  25
SHEBOYGAN      CLOUDY    34  32  92 W7        29.49R WCI  28
WEST BEND      CLOUDY    34  32  93 W9        29.50S WCI  26
JUNEAU         CLOUDY    33  31  92 W8        29.54S WCI  26
$$

LSZ147-162-250400-
LAKE SUPERIOR

STATION/POSITION TIME  TEMP    WIND        PRES    WAVE
                       AIR SEA DIR/SP/G            HT/PER
                 (UTC) (F)     (DEG/KT/KT) (MB)    (FT/S)
DEVILS ISLAND    0300   34     240/  8/ 10  999.9F
PORT WING        0200   33     210/  5/  7 1000.7S
SAXON HARBOR     0200   33        CALM     1000.3F
$$

LMZ867-665-643>646-250400-
LAKE MICHIGAN

STATION/POSITION TIME  TEMP    WIND        PRES    WAVE
                       AIR SEA DIR/SP/G            HT/PER
                 (UTC) (F)     (DEG/KT/KT) (MB)    (FT/S)
CHAMBERS ISLAND  0200   33     300/  7/ 11  997.6F
NORTHPORT PIER   0200   33     310/ 14/ 21  997.0F
SISTER BAY       0213          360/ 18/ 19   N/A
ALGOMA LAKESHORE 0100          340/ 10/ 12   N/A
KEWAUNEE LAKESHO 0200          310/  5/  9  997.1R
SHEBOYGAN LAKESH 0300   35 36  310/ 11/ 13  999.4R
PORT WASHINGTON  0240   36     300/  8/ 14 1000.0R
MILWAUKEE LAKESH 0200   36     280/  9/ 12   N/A
KENOSHA   LAKESH 0300   37     280/ 14/ 21 1000.7R
$$

TC  - TEMPERATURE IN CELSIUS
VSB - VISIBILITY IN STATUTE MILES
WCI - WIND CHILL INDEX
HX  - HEAT INDEX




USA.gov is the U.S. government's official web portal to all federal, state and local government web resources and services.